Weather History for Woodward, OK

Change the Weather History Date:

Tuesday, October 15, 2013

  Actual Average (KGAG) Record (KGAG)
Temperature  
Mean Temperature 52 °F -  
Max Temperature 62 °F 72 °F 92 °F (1948)
Min Temperature 42 °F 45 °F 28 °F (1952)
Degree Days  
Heating Degree Days 13    
Growing Degree Days 2 (Base 50)    
Moisture  
Dew Point 35 °F    
Average Humidity 56    
Maximum Humidity 81    
Minimum Humidity 32    
Precipitation  
Precipitation 0.00 in - - ()
Sea Level Pressure  
Sea Level Pressure 30.15 in    
Wind  
Wind Speed 14 mph (NNW)    
Max Wind Speed 24 mph    
Max Gust Speed 30 mph    
Visibility 10 miles    
Events      
Averages and records for this station are not official NWS values.
T = Trace of Precipitation, MM = Missing Value Source: NWS Daily Summary

Daily Weather History Graph

Daily Weather History Graph

Search for Another Location

Airport:

Trip Planner

Search our weather history database for the weather conditions in past years. The results will help you decide how hot, cold, wet, or windy it might be!

Date:

Astronomy

Oct. 15, 2013 Rise Set
Actual Time 7:45 AM CDT 7:01 PM CDT
Civil Twilight 7:19 AM CDT 7:27 PM CDT
Nautical Twilight 6:49 AM CDT 7:57 PM CDT
Astronomical Twilight 6:19 AM CDT 8:27 PM CDT
Moon 5:03 PM CDT (10/15) 4:15 AM CDT (10/15)
Length of Visible Light 12h 07m
Length of Day
11h 15m
Waxing Gibbous, 88% of the Moon is Illuminated
Oct 15
Waxing Gibbous
Oct 18
Full
Oct 26
Last Quarter
Nov 3
New
Nov 9
First Quarter

Hourly Weather History & Observations

Time (CDT) Temp. Windchill Dew Point Humidity Pressure Visibility Wind Dir Wind Speed Gust Speed Precip Events Conditions
12:15 AM 59.0 °F - 44.6 °F 59% 30.01 in 10.0 mi NNW 16.1 mph 21.9 mph N/A   Clear
12:35 AM 57.2 °F - 44.6 °F 63% 30.02 in 10.0 mi NW 15.0 mph 23.0 mph N/A   Clear
12:55 AM 55.4 °F - 44.6 °F 67% 30.03 in 10.0 mi NNW 19.6 mph 23.0 mph N/A   Clear
1:15 AM 55.4 °F - 44.6 °F 67% 30.05 in 10.0 mi NW 16.1 mph 21.9 mph N/A   Clear
1:35 AM 53.6 °F - 42.8 °F 67% 30.06 in 10.0 mi NW 15.0 mph 21.9 mph N/A   Clear
1:55 AM 51.8 °F - 41.0 °F 67% 30.07 in 10.0 mi NNW 13.8 mph 23.0 mph N/A   Clear
2:15 AM 51.8 °F - 41.0 °F 67% 30.08 in 10.0 mi NNW 16.1 mph 25.3 mph N/A   Clear
2:35 AM 51.8 °F - 41.0 °F 67% 30.09 in 10.0 mi NNW 13.8 mph - N/A   Clear
2:55 AM 50.0 °F - 41.0 °F 71% 30.09 in 10.0 mi NNW 10.4 mph - N/A   Clear
3:15 AM 50.0 °F - 39.2 °F 66% 30.09 in 10.0 mi NNW 11.5 mph - N/A   Clear
3:35 AM 48.2 °F - 41.0 °F 76% 30.09 in 10.0 mi NW 9.2 mph - N/A   Clear
3:55 AM 46.4 °F 42.4 °F 41.0 °F 81% 30.10 in 10.0 mi NW 8.1 mph - N/A   Clear
4:15 AM 46.4 °F 41.5 °F 39.2 °F 76% 30.10 in 10.0 mi NW 10.4 mph - N/A   Clear
4:35 AM 46.4 °F 40.7 °F 37.4 °F 71% 30.10 in 10.0 mi NW 12.7 mph - N/A   Clear
4:55 AM 46.4 °F 41.5 °F 37.4 °F 71% 30.11 in 10.0 mi NW 10.4 mph - N/A   Clear
5:15 AM 44.6 °F 40.7 °F 37.4 °F 76% 30.13 in 10.0 mi NW 6.9 mph - N/A   Clear
5:35 AM 44.6 °F 40.2 °F 37.4 °F 76% 30.13 in 10.0 mi NW 8.1 mph - N/A   Clear
5:55 AM 44.6 °F 39.7 °F 37.4 °F 76% 30.14 in 10.0 mi NW 9.2 mph - N/A   Clear
6:15 AM 44.6 °F 39.7 °F 37.4 °F 76% 30.15 in 10.0 mi NW 9.2 mph - N/A   Clear
6:35 AM 44.6 °F 38.8 °F 37.4 °F 76% 30.15 in 10.0 mi NW 11.5 mph - N/A   Clear
6:55 AM 44.6 °F 38.8 °F 35.6 °F 71% 30.16 in 10.0 mi NW 11.5 mph - N/A   Clear
7:15 AM 42.8 °F 37.5 °F 35.6 °F 76% 30.16 in 10.0 mi NW 9.2 mph - N/A   Scattered Clouds
7:35 AM 42.8 °F 37.0 °F 35.6 °F 76% 30.17 in 10.0 mi NW 10.4 mph - N/A   Scattered Clouds
7:55 AM 42.8 °F 36.6 °F 35.6 °F 76% 30.17 in 10.0 mi NW 11.5 mph - N/A   Clear
8:15 AM 42.8 °F 35.8 °F 35.6 °F 76% 30.18 in 10.0 mi NW 13.8 mph 19.6 mph N/A   Clear
8:35 AM 42.8 °F 37.0 °F 35.6 °F 76% 30.18 in 10.0 mi NW 10.4 mph - N/A   Clear
8:55 AM 42.8 °F 37.0 °F 35.6 °F 76% 30.20 in 10.0 mi NW 10.4 mph - N/A   Clear
9:15 AM 44.6 °F 37.8 °F 35.6 °F 71% 30.19 in 10.0 mi NNW 15.0 mph 21.9 mph N/A   Clear
9:35 AM 44.6 °F 37.2 °F 33.8 °F 66% 30.20 in 10.0 mi NNW 17.3 mph 23.0 mph N/A   Clear
9:55 AM 48.2 °F - 33.8 °F 58% 30.21 in 10.0 mi NNW 18.4 mph 25.3 mph N/A   Clear
10:15 AM 50.0 °F - 33.8 °F 54% 30.21 in 10.0 mi NNW 17.3 mph 24.2 mph N/A   Clear
10:35 AM 51.8 °F - 33.8 °F 50% 30.21 in 10.0 mi North 23.0 mph 29.9 mph N/A   Clear
10:55 AM 51.8 °F - 33.8 °F 50% 30.21 in 10.0 mi NNW 21.9 mph 28.8 mph N/A   Clear
11:15 AM 51.8 °F - 33.8 °F 50% 30.20 in 10.0 mi NNW 24.2 mph 28.8 mph N/A   Clear
11:35 AM 53.6 °F - 32.0 °F 44% 30.20 in 10.0 mi NNW 18.4 mph 28.8 mph N/A   Clear
11:55 AM 55.4 °F - 32.0 °F 41% 30.21 in 10.0 mi NNW 19.6 mph 26.5 mph N/A   Clear
12:15 PM 55.4 °F - 32.0 °F 41% 30.21 in 10.0 mi NNW 16.1 mph 21.9 mph N/A   Clear
12:35 PM 55.4 °F - 32.0 °F 41% 30.20 in 10.0 mi NNW 19.6 mph 25.3 mph N/A   Clear
12:55 PM 57.2 °F - 32.0 °F 38% 30.19 in 10.0 mi NNW 16.1 mph 24.2 mph N/A   Clear
1:15 PM 59.0 °F - 32.0 °F 36% 30.18 in 10.0 mi NNW 19.6 mph 26.5 mph N/A   Clear
1:35 PM 59.0 °F - 32.0 °F 36% 30.18 in 10.0 mi NNW 17.3 mph 21.9 mph N/A   Clear
1:55 PM 60.8 °F - 32.0 °F 34% 30.17 in 10.0 mi NNW 16.1 mph 25.3 mph N/A   Clear
2:15 PM 60.8 °F - 32.0 °F 34% 30.16 in 10.0 mi NNW 16.1 mph 24.2 mph N/A   Scattered Clouds
2:35 PM 60.8 °F - 32.0 °F 34% 30.15 in 10.0 mi North 17.3 mph 23.0 mph N/A   Overcast
2:55 PM 60.8 °F - 32.0 °F 34% 30.14 in 10.0 mi North 16.1 mph 25.3 mph N/A   Overcast
3:15 PM 60.8 °F - 32.0 °F 34% 30.13 in 10.0 mi North 15.0 mph 25.3 mph N/A   Scattered Clouds
3:35 PM 62.6 °F - 32.0 °F 32% 30.14 in 10.0 mi NNW 15.0 mph 23.0 mph N/A   Clear
3:55 PM 62.6 °F - 32.0 °F 32% 30.13 in 10.0 mi North 18.4 mph 21.9 mph N/A   Clear
4:15 PM 62.6 °F - 32.0 °F 32% 30.13 in 10.0 mi NNW 13.8 mph 25.3 mph N/A   Clear
4:35 PM 62.6 °F - 32.0 °F 32% 30.13 in 10.0 mi North 18.4 mph 24.2 mph N/A   Clear
4:55 PM 62.6 °F - 32.0 °F 32% 30.12 in 10.0 mi North 17.3 mph 20.7 mph N/A   Clear
5:15 PM 60.8 °F - 32.0 °F 34% 30.13 in 10.0 mi North 12.7 mph 20.7 mph N/A   Clear
5:35 PM 60.8 °F - 32.0 °F 34% 30.12 in 10.0 mi North 12.7 mph - N/A   Clear
5:55 PM 60.8 °F - 32.0 °F 34% 30.12 in 10.0 mi North 17.3 mph 20.7 mph N/A   Clear
6:15 PM 59.0 °F - 32.0 °F 36% 30.13 in 10.0 mi NNW 13.8 mph 21.9 mph N/A   Clear
6:35 PM 59.0 °F - 32.0 °F 36% 30.13 in 10.0 mi North 11.5 mph 19.6 mph N/A   Clear
6:55 PM 55.4 °F - 33.8 °F 44% 30.15 in 10.0 mi North 10.4 mph - N/A   Clear
7:15 PM 53.6 °F - 33.8 °F 47% 30.15 in 10.0 mi North 9.2 mph - N/A   Clear
7:55 PM 51.8 °F - 33.8 °F 50% 30.17 in 10.0 mi North 6.9 mph - N/A   Clear
8:15 PM 50.0 °F - 33.8 °F 54% 30.17 in 10.0 mi North 8.1 mph - N/A   Clear
8:35 PM 50.0 °F - 35.6 °F 58% 30.18 in 10.0 mi North 6.9 mph - N/A   Clear
8:55 PM 48.2 °F - 35.6 °F 62% 30.19 in 10.0 mi North 8.1 mph - N/A   Clear
9:15 PM 50.0 °F - 35.6 °F 58% 30.19 in 10.0 mi North 6.9 mph - N/A   Clear
9:35 PM 48.2 °F - 35.6 °F 62% 30.20 in 10.0 mi North 8.1 mph - N/A   Scattered Clouds
9:55 PM 50.0 °F - 35.6 °F 58% 30.20 in 10.0 mi North 8.1 mph - N/A   Mostly Cloudy
10:15 PM 50.0 °F - 33.8 °F 54% 30.20 in 10.0 mi North 10.4 mph - N/A   Mostly Cloudy
10:35 PM 48.2 °F - 33.8 °F 58% 30.21 in 10.0 mi North 8.1 mph - N/A   Scattered Clouds
10:55 PM 46.4 °F 43.5 °F 35.6 °F 66% 30.21 in 10.0 mi North 5.8 mph - N/A   Clear
11:15 PM 44.6 °F 40.7 °F 33.8 °F 66% 30.22 in 10.0 mi North 6.9 mph - N/A   Clear
11:35 PM 46.4 °F 41.9 °F 33.8 °F 62% 30.22 in 10.0 mi North 9.2 mph - N/A   Clear
11:55 PM 46.4 °F 41.5 °F 33.8 °F 62% 30.22 in 10.0 mi North 10.4 mph - N/A   Clear